Weather History for EGPF - April, 2014

Change the Weather History Date:

Thursday, April 17, 2014

  Actual Average Record
Temperature  
Mean Temperature 46 °F -  
Max Temperature 53 °F 55 °F 69 °F (2003)
Min Temperature 39 °F 40 °F 28 °F (1999)
Degree Days  
Heating Degree Days 19    
Moisture  
Dew Point 40 °F    
Average Humidity 73    
Maximum Humidity 94    
Minimum Humidity 50    
Precipitation  
Precipitation 0.00 in - - ()
Sea Level Pressure  
Sea Level Pressure 29.99 in    
Wind  
Wind Speed 15 mph ()    
Max Wind Speed 24 mph    
Max Gust Speed 32 mph    
Visibility 6.2 miles    
Events Rain    
Averages and records for this station are not official NWS values.
T = Trace of Precipitation, MM = Missing Value Source: Averaged Metar Reports

Daily Weather History Graph

Daily Weather History Graph

Search for Another Location

Airport or City:

Trip Planner

Search our weather history database for the weather conditions in past years. The results will help you decide how hot, cold, wet, or windy it might be!

Date:

Astronomy

Apr. 17, 2014 Rise Set
Actual Time 6:07 AM BST 8:28 PM BST
Civil Twilight 5:27 AM BST 9:08 PM BST
Nautical Twilight 4:35 AM BST 10:01 PM BST
Astronomical Twilight 3:32 AM BST 11:05 PM BST
Moon 11:21 PM BST (4/17) 7:11 AM BST (4/17)
Length of Visible Light 15h 41m
Length of Day
14h 20m
Waning Gibbous, 95% of the Moon is Illuminated
Apr 17
Waning Gibbous
Apr 22
Last Quarter
Apr 29
New
May 7
First Quarter
May 14
Full

Hourly Weather History & Observations

Time (BST) Temp. Windchill Dew Point Humidity Pressure Visibility Wind Dir Wind Speed Gust Speed Precip Events Conditions
12:20 AM 50.0 °F - 48.2 °F 94% 29.98 in - SW 12.7 mph - N/A   Light Drizzle
12:50 AM 50.0 °F - 48.2 °F 94% 29.98 in - WSW 16.1 mph - N/A   Drizzle
1:20 AM 50.0 °F - 46.4 °F 87% 29.98 in 6.2 mi WSW 12.7 mph - N/A   Overcast
1:50 AM 50.0 °F - 46.4 °F 87% 29.98 in 6.2 mi WSW 15.0 mph - N/A   Mostly Cloudy
2:20 AM 50.0 °F - 46.4 °F 87% 29.95 in 6.2 mi WSW 18.4 mph - N/A   Mostly Cloudy
2:50 AM 48.2 °F - 46.4 °F 93% 29.95 in 5.6 mi WSW 15.0 mph - N/A   Light Drizzle
3:20 AM 50.0 °F - 46.4 °F 87% 29.95 in 6.2 mi WSW 17.3 mph - N/A   Mostly Cloudy
3:50 AM 48.2 °F - 44.6 °F 87% 29.95 in 6.2 mi West 18.4 mph - N/A   Mostly Cloudy
4:20 AM 48.2 °F - 42.8 °F 82% 29.92 in 6.2 mi West 19.6 mph 31.1 mph N/A   Mostly Cloudy
4:50 AM 48.2 °F - 42.8 °F 82% 29.92 in 6.2 mi West 19.6 mph - N/A   Scattered Clouds
5:20 AM 46.4 °F 39.2 °F 41.0 °F 81% 29.92 in 6.2 mi West 18.4 mph - N/A   Mostly Cloudy
5:50 AM 46.4 °F 39.5 °F 41.0 °F 81% 29.92 in 6.2 mi WSW 17.3 mph - N/A   Mostly Cloudy
6:20 AM 46.4 °F 39.5 °F 42.8 °F 87% 29.92 in 6.2 mi West 17.3 mph - N/A Rain Light Rain
6:50 AM 46.4 °F 38.7 °F 41.0 °F 81% 29.92 in 6.2 mi West 20.7 mph - N/A Rain Light Rain
7:20 AM 46.4 °F 39.2 °F 42.8 °F 87% 29.95 in 6.2 mi WSW 18.4 mph - N/A   Mostly Cloudy
7:50 AM 46.4 °F 38.7 °F 42.8 °F 87% 29.95 in 6.2 mi WSW 20.7 mph - N/A   Mostly Cloudy
8:20 AM 46.4 °F 39.0 °F 42.8 °F 87% 29.92 in 6.2 mi WSW 19.6 mph - N/A   Mostly Cloudy
8:50 AM 46.4 °F 39.2 °F 42.8 °F 87% 29.92 in 6.2 mi WSW 18.4 mph - N/A   Mostly Cloudy
9:20 AM 48.2 °F - 42.8 °F 82% 29.92 in 6.2 mi WSW 19.6 mph - N/A   Mostly Cloudy
9:50 AM 48.2 °F - 44.6 °F 87% 29.92 in 6.2 mi West 18.4 mph - N/A Rain Light Rain
10:20 AM 48.2 °F - 44.6 °F 87% 29.92 in 6.2 mi WSW 21.9 mph - N/A Rain Light Rain
10:50 AM 50.0 °F - 44.6 °F 82% 29.92 in 6.2 mi West 19.6 mph - N/A   Mostly Cloudy
11:20 AM 50.0 °F - 44.6 °F 82% 29.92 in 6.2 mi WNW 21.9 mph - N/A   Mostly Cloudy
11:50 AM 51.8 °F - 41.0 °F 67% 29.92 in 6.2 mi West 24.2 mph - N/A   Mostly Cloudy
12:20 PM 51.8 °F - 39.2 °F 62% 29.92 in 6.2 mi WNW 20.7 mph 32.2 mph N/A   Mostly Cloudy
12:50 PM 51.8 °F - 35.6 °F 54% 29.95 in 6.2 mi WNW 19.6 mph - N/A   Scattered Clouds
1:20 PM 51.8 °F - 37.4 °F 58% 29.95 in 6.2 mi WNW 15.0 mph - N/A   Mostly Cloudy
1:50 PM 51.8 °F - 33.8 °F 50% 29.98 in 6.2 mi WNW 16.1 mph - N/A   Scattered Clouds
2:20 PM 51.8 °F - 35.6 °F 54% 29.98 in 6.2 mi WNW 18.4 mph - N/A   Partly Cloudy
2:50 PM 51.8 °F - 35.6 °F 54% 29.98 in 6.2 mi WNW 20.7 mph - N/A   Partly Cloudy
3:20 PM 51.8 °F - 35.6 °F 54% 29.98 in 6.2 mi WNW 16.1 mph - N/A   Partly Cloudy
3:50 PM 53.6 °F - 35.6 °F 51% 30.01 in 6.2 mi WNW 18.4 mph 29.9 mph N/A   Partly Cloudy
4:20 PM 51.8 °F - 33.8 °F 50% 30.01 in 6.2 mi WNW 17.3 mph - N/A   Partly Cloudy
4:50 PM 51.8 °F - 35.6 °F 54% 30.01 in 6.2 mi WNW 15.0 mph - N/A   Scattered Clouds
5:20 PM 51.8 °F - 35.6 °F 54% 30.04 in 6.2 mi WNW 15.0 mph - N/A   Partly Cloudy
5:50 PM 51.8 °F - 35.6 °F 54% 30.04 in 6.2 mi NW 18.4 mph - N/A   Partly Cloudy
6:20 PM 50.0 °F - 33.8 °F 54% 30.04 in - WNW 17.3 mph - N/A   Clear
6:50 PM 50.0 °F - 33.8 °F 54% 30.04 in 6.2 mi WNW 17.3 mph - N/A   Partly Cloudy
7:20 PM 50.0 °F - 33.8 °F 54% 30.06 in - WNW 11.5 mph - N/A   Clear
7:50 PM 48.2 °F - 33.8 °F 58% 30.06 in - NW 11.5 mph - N/A   Clear
8:20 PM 46.4 °F 41.5 °F 33.8 °F 62% 30.06 in - NW 10.4 mph - N/A   Clear
8:50 PM 46.4 °F 41.5 °F 33.8 °F 62% 30.09 in - WNW 10.4 mph - N/A   Clear
9:20 PM 42.8 °F 38.6 °F 35.6 °F 76% 30.09 in - West 6.9 mph - N/A   Clear
9:50 PM 42.8 °F 38.6 °F 35.6 °F 76% 30.12 in - WSW 6.9 mph - N/A   Clear
10:20 PM 42.8 °F 37.5 °F 35.6 °F 76% 30.12 in - WNW 9.2 mph - N/A   Clear
10:50 PM 39.2 °F 35.0 °F 33.8 °F 81% 30.12 in - West 5.8 mph - N/A   Clear
11:20 PM 39.2 °F 37.0 °F 33.8 °F 81% 30.15 in - Variable 3.5 mph - N/A   Clear
11:50 PM 39.2 °F 35.9 °F 33.8 °F 81% 30.15 in - West 4.6 mph - N/A   Clear